Flag for Germany Weather past 2 weeks in Mühlhausen/Thüringen, Thuringia, Germany

32 °F

Passing clouds.

Feels Like: 26 °F
Forecast: 30 / 42 °F
Wind: 7 mph from Southwest

Location: Erfurt-Bindersleben

Current Time: Nov 27, 2015 at 1:13:51 AM

Latest Report: Nov 27, 2015 at 12:20 AM

Visibility: N/A

Pressure: 30.15 "Hg

Humidity: 93%

Dew point: 30 °F

Location of Mühlhausen/ThüringenLocation

Historic Weather in Mühlhausen/Thüringen — Graph


Mühlhausen/Thüringen temperature yesterday

Maximum temperature yesterday: 43 °F (at 12:50 PM)
Minimum temperature yesterday: 30 °F (at 10:20 PM)
Average temperature yesterday: 37 °F

Past Weeks' High & Low Weather Summary

High57 °F (Nov 12, 12:20 PM)100% (Nov 21, 10:20 PM)30.30 "Hg (Nov 21, 10:20 PM)
Low28 °F (Nov 22, 6:50 AM)58% (Nov 18, 11:50 AM)29.39 "Hg (Nov 21, 4:50 AM)
Average43 °F82%29.89 "Hg
* Reported Nov 11 11:20 PM — Nov 26 11:50 PM, Mühlhausen/Thüringen, Weather by CustomWeather, © 2015

Note: Actual official high and low records may vary slightly from our data, if they occured in-between our weather recording intervals... More about our weather records


Mühlhausen/Thüringen weather history for previous 24 hours

Time TempWeatherWind HumidityBarometerVisibility
11:50 PM
Thu, Nov 26
32 °FPassing clouds.7 mph93%30.15 "HgN/A
10:50 PM32 °FPassing clouds.9 mph93%30.15 "HgN/A
10:20 PM30 °FPassing clouds.8 mph100%30.12 "HgN/A
9:50 PM32 °FPassing clouds.9 mph93%30.12 "HgN/A
9:20 PM34 °FPassing clouds.9 mph93%30.12 "HgN/A
8:50 PM32 °FPassing clouds.8 mph93%30.12 "HgN/A
8:20 PM34 °FPassing clouds.10 mph93%30.12 "HgN/A
7:50 PM34 °FPassing clouds.12 mph93%30.12 "HgN/A
7:20 PM34 °FPassing clouds.8 mph93%30.09 "HgN/A
6:50 PM34 °FPassing clouds.9 mph87%30.09 "HgN/A
6:20 PM36 °FPassing clouds.9 mph87%30.09 "HgN/A
5:50 PM36 °FPassing clouds.10 mph87%30.07 "HgN/A
5:20 PM36 °FPassing clouds.9 mph87%30.07 "HgN/A
4:50 PM36 °FPassing clouds.9 mph87%30.04 "HgN/A
4:20 PM37 °FPassing clouds.10 mph81%30.04 "HgN/A
3:50 PM39 °FPassing clouds.8 mph81%30.04 "HgN/A
3:20 PM41 °FScattered clouds.6 mph81%30.01 "HgN/A
2:50 PM41 °FScattered clouds.6 mph81%30.01 "HgN/A
2:20 PM41 °FScattered clouds.8 mph76%29.98 "HgN/A
1:50 PM43 °FScattered clouds.9 mph71%29.98 "HgN/A
1:20 PM43 °FScattered clouds.10 mph71%29.98 "HgN/A
12:50 PM43 °FScattered clouds.12 mph76%29.95 "HgN/A
12:20 PM41 °FScattered clouds.10 mph81%29.95 "HgN/A
11:50 AM41 °FBroken clouds.13 mph81%29.95 "HgN/A
11:20 AM41 °FPartly sunny.12 mph87%29.95 "HgN/A
10:50 AM39 °FPartly sunny.10 mph87%29.92 "HgN/A
10:20 AM39 °FBroken clouds.12 mph87%29.92 "HgN/A
9:50 AM39 °FPartly sunny.10 mph87%29.89 "HgN/A
9:20 AM37 °FPartly sunny.7 mph93%29.89 "HgN/A
8:50 AM37 °FBroken clouds.7 mph93%29.89 "HgN/A
8:20 AM37 °FPartly sunny.9 mph93%29.86 "HgN/A
7:20 AM36 °FPassing clouds.10 mph100%29.83 "Hg5 mi
6:50 AM36 °FPartly cloudy.10 mph100%29.83 "HgN/A
6:20 AM36 °FPartly cloudy.9 mph100%29.80 "HgN/A
5:50 AM36 °FOvercast.8 mph93%29.80 "HgN/A
5:20 AM36 °FMostly cloudy.10 mph93%29.80 "HgN/A
4:50 AM36 °FOvercast.8 mph93%29.77 "HgN/A
4:20 AM36 °FPassing clouds.8 mph93%29.77 "HgN/A
3:50 AM36 °FPassing clouds.10 mph93%29.77 "HgN/A
3:20 AM36 °FPassing clouds.9 mph93%29.77 "HgN/A
2:50 AM36 °FPassing clouds.10 mph93%29.74 "HgN/A
2:20 AM36 °FLow clouds.8 mph93%29.74 "HgN/A
1:20 AM36 °FPassing clouds.10 mph93%29.74 "HgN/A
Weather by CustomWeather, © 2015

See weather overviewHow to use our weather pages